Weather History for Sturgis, MI

Change the Weather History Date:

Friday, February 22, 2013

  Actual Average (KHAI) Record (KHAI)
Temperature  
Mean Temperature 27 °F -  
Max Temperature 33 °F 40 °F 61 °F (1983)
Min Temperature 21 °F 23 °F -11 °F (1963)
Degree Days  
Heating Degree Days 38    
Moisture  
Dew Point 23 °F    
Average Humidity 88    
Maximum Humidity 100    
Minimum Humidity 80    
Precipitation  
Precipitation 0.00 in - - ()
Sea Level Pressure  
Sea Level Pressure 29.91 in    
Wind  
Wind Speed 14 mph (SSE)    
Max Wind Speed 23 mph    
Max Gust Speed 30 mph    
Visibility 6 miles    
Events Snow    
Averages and records for this station are not official NWS values.
T = Trace of Precipitation, MM = Missing Value Source: NWS Daily Summary

Daily Weather History Graph

Daily Weather History Graph

Search for Another Location

Airport:

Trip Planner

Search our weather history database for the weather conditions in past years. The results will help you decide how hot, cold, wet, or windy it might be!

Date:

Astronomy

Feb. 22, 2013 Rise Set
Actual Time 7:27 AM EST 6:23 PM EST
Civil Twilight 6:58 AM EST 6:52 PM EST
Nautical Twilight 6:26 AM EST 7:24 PM EST
Astronomical Twilight 5:54 AM EST 7:56 PM EST
Moon 3:33 PM EST (2/22) 5:13 AM EST (2/22)
Length of Visible Light 11h 53m
Length of Day
10h 56m
Waxing Gibbous, 90% of the Moon is Illuminated
Feb 22
Waxing Gibbous
Feb 25
Full
Mar 4
Last Quarter
Mar 11
New
Mar 19
First Quarter

Hourly Weather History & Observations

Time (EST) Temp. Windchill Dew Point Humidity Pressure Visibility Wind Dir Wind Speed Gust Speed Precip Events Conditions
12:15 AM 21.2 °F 7.3 °F 15.8 °F 80% 30.11 in 10.0 mi ESE 16.1 mph - N/A   Mostly Cloudy
12:34 AM 21.2 °F 4.9 °F 15.8 °F 80% 30.10 in 10.0 mi ESE 23.0 mph 27.6 mph N/A   Overcast
12:55 AM 21.2 °F 5.6 °F 15.8 °F 80% 30.07 in 10.0 mi ESE 20.7 mph 29.9 mph N/A   Mostly Cloudy
1:15 AM 21.2 °F 7.8 °F 15.8 °F 80% 30.09 in 10.0 mi ESE 15.0 mph 26.5 mph N/A   Overcast
1:35 AM 21.2 °F 7.3 °F 15.8 °F 80% 30.08 in 10.0 mi ESE 16.1 mph 20.7 mph N/A   Overcast
1:55 AM 21.2 °F 6.4 °F 17.6 °F 86% 30.07 in 10.0 mi ESE 18.4 mph 24.2 mph N/A   Overcast
2:15 AM 21.2 °F 5.6 °F 15.8 °F 80% 30.05 in 7.0 mi ESE 20.7 mph 24.2 mph N/A Snow Light Snow
2:35 AM 21.2 °F 6.8 °F 17.6 °F 86% 30.01 in 1.8 mi East 17.3 mph 26.5 mph N/A Snow Light Snow
2:55 AM 21.2 °F 7.3 °F 17.6 °F 86% 30.00 in 2.0 mi East 16.1 mph 26.5 mph N/A Snow Light Snow
3:14 AM 21.2 °F 6.8 °F 17.6 °F 86% 29.99 in 3.0 mi East 17.3 mph 26.5 mph N/A Snow Light Snow
3:35 AM 21.2 °F 7.8 °F 19.4 °F 93% 29.98 in 2.5 mi East 15.0 mph 21.9 mph N/A Snow Light Snow
3:55 AM 21.2 °F 8.3 °F 19.4 °F 93% 29.97 in 1.8 mi East 13.8 mph 20.7 mph N/A Snow Light Snow
4:14 AM 21.2 °F 7.8 °F 19.4 °F 93% 29.96 in 1.5 mi East 15.0 mph 21.9 mph N/A Snow Light Snow
4:35 AM 21.2 °F 6.4 °F 19.4 °F 93% 29.94 in 1.2 mi East 18.4 mph 23.0 mph N/A Snow Light Snow
4:55 AM 21.2 °F 9.5 °F 19.4 °F 93% 29.93 in 0.8 mi East 11.5 mph 17.3 mph N/A Snow Snow
5:14 AM 21.2 °F 7.8 °F 19.4 °F 93% 29.93 in 1.5 mi East 15.0 mph - N/A Snow Light Snow
5:35 AM 21.2 °F 6.8 °F 19.4 °F 93% 29.91 in 1.2 mi East 17.3 mph 23.0 mph N/A Snow Light Snow
5:55 AM 23.0 °F 8.7 °F 21.2 °F 93% 29.89 in 1.2 mi East 18.4 mph 23.0 mph N/A Snow Light Snow
6:14 AM 23.0 °F 10.6 °F 19.4 °F 86% 29.91 in 1.5 mi ESE 13.8 mph 25.3 mph N/A Snow Light Snow
6:35 AM 23.0 °F 10.1 °F 19.4 °F 86% 29.91 in 2.0 mi ESE 15.0 mph - N/A Snow Light Snow
7:15 AM 21.2 °F 9.5 °F 21.2 °F 100% 29.91 in 1.0 mi ESE 11.5 mph - N/A Snow Snow
7:54 AM 21.2 °F 9.5 °F 19.4 °F 93% 29.90 in 2.5 mi ESE 11.5 mph 17.3 mph N/A Snow Light Snow
8:15 AM 23.0 °F 12.4 °F 19.4 °F 86% 29.90 in 2.5 mi ESE 10.4 mph - N/A   Overcast
8:54 AM 23.0 °F 10.6 °F 19.4 °F 86% 29.89 in 4.0 mi ESE 13.8 mph - N/A   Overcast
9:54 AM 24.8 °F 13.4 °F 21.2 °F 86% 29.86 in 7.0 mi ESE 12.7 mph 17.3 mph N/A   Overcast
10:35 AM 24.8 °F 16.1 °F 23.0 °F 93% 29.86 in 10.0 mi SE 8.1 mph - N/A   Overcast
10:54 AM 24.8 °F 13.4 °F 23.0 °F 93% 29.85 in 10.0 mi SE 12.7 mph - N/A   Overcast
11:15 AM 26.6 °F 16.8 °F 24.8 °F 93% 29.85 in 10.0 mi SE 10.4 mph - N/A   Overcast
11:35 AM 26.6 °F 17.5 °F 24.8 °F 93% 29.86 in 10.0 mi SSE 9.2 mph - N/A   Overcast
11:54 AM 26.6 °F 19.1 °F 24.8 °F 93% 29.86 in 10.0 mi SSE 6.9 mph - N/A   Overcast
12:15 PM 28.4 °F 19.7 °F 24.8 °F 86% 29.86 in 7.0 mi SSE 9.2 mph - N/A   Overcast
12:35 PM 28.4 °F 22.2 °F 26.6 °F 93% 29.85 in 10.0 mi SE 5.8 mph - N/A   Overcast
12:54 PM 28.4 °F 21.2 °F 26.6 °F 93% 29.85 in 10.0 mi SSE 6.9 mph - N/A   Overcast
1:34 PM 28.4 °F 23.3 °F 26.6 °F 93% 29.84 in 7.0 mi SSE 4.6 mph - N/A   Overcast
1:55 PM 28.4 °F 21.2 °F 26.6 °F 93% 29.84 in 7.0 mi SSE 6.9 mph - N/A   Overcast
2:15 PM 30.2 °F 22.6 °F 28.4 °F 93% 29.84 in 4.0 mi South 8.1 mph - N/A   Overcast
2:35 PM 30.2 °F 23.4 °F 28.4 °F 93% 29.84 in 4.0 mi South 6.9 mph - N/A   Overcast
2:55 PM 30.2 °F 22.6 °F 30.2 °F 100% 29.84 in 3.0 mi SSW 8.1 mph - N/A   Overcast
3:15 PM 32.0 °F 24.2 °F 30.2 °F 93% 29.83 in 1.5 mi SSW 9.2 mph - N/A   Overcast
3:35 PM 32.0 °F 23.6 °F 30.2 °F 93% 29.83 in 1.2 mi SSW 10.4 mph - N/A   Overcast
6:35 PM 33.8 °F 24.3 °F 30.2 °F 87% 29.86 in 3.0 mi SW 13.8 mph 19.6 mph N/A   Overcast
6:55 PM 33.8 °F 25.3 °F 30.2 °F 87% 29.86 in 4.0 mi SW 11.5 mph - N/A   Overcast
7:15 PM 33.8 °F 23.9 °F 30.2 °F 87% 29.87 in 7.0 mi WSW 15.0 mph 20.7 mph N/A   Overcast
7:35 PM 33.8 °F 25.3 °F 30.2 °F 87% 29.87 in 10.0 mi WSW 11.5 mph - N/A   Overcast
7:54 PM 33.8 °F 24.3 °F 30.2 °F 87% 29.87 in 10.0 mi SW 13.8 mph 20.7 mph N/A   Overcast
8:15 PM 33.8 °F 24.8 °F 28.4 °F 81% 29.87 in 10.0 mi SW 12.7 mph - N/A   Overcast
8:35 PM 32.0 °F 24.2 °F 28.4 °F 87% 29.87 in 10.0 mi WSW 9.2 mph - N/A   Overcast
8:54 PM 32.0 °F 23.0 °F 28.4 °F 87% 29.88 in 10.0 mi WSW 11.5 mph - N/A   Overcast
9:15 PM 32.0 °F 24.2 °F 28.4 °F 87% 29.88 in 10.0 mi WSW 9.2 mph - N/A   Overcast
9:35 PM 32.0 °F 23.0 °F 28.4 °F 87% 29.89 in 10.0 mi WSW 11.5 mph 16.1 mph N/A   Overcast
9:54 PM 32.0 °F 23.6 °F 26.6 °F 80% 29.89 in 10.0 mi SW 10.4 mph - N/A   Overcast
10:15 PM 32.0 °F 22.5 °F 26.6 °F 80% 29.89 in 10.0 mi WSW 12.7 mph - N/A   Overcast
10:34 PM 30.2 °F 20.2 °F 26.6 °F 86% 29.89 in 10.0 mi WSW 12.7 mph 17.3 mph N/A   Overcast
10:55 PM 30.2 °F 20.8 °F 26.6 °F 86% 29.89 in 10.0 mi WSW 11.5 mph - N/A   Overcast
11:15 PM 30.2 °F 21.3 °F 24.8 °F 80% 29.89 in 10.0 mi WSW 10.4 mph - N/A   Overcast
11:34 PM 30.2 °F 21.3 °F 24.8 °F 80% 29.89 in 10.0 mi WSW 10.4 mph - N/A   Overcast
11:55 PM 30.2 °F 21.3 °F 24.8 °F 80% 29.89 in 10.0 mi WSW 10.4 mph - N/A   Overcast